Tracking 30415 objects as of 16-May-2025
HD Live streaming from Space Station
objects crossing your sky now

THOR ABLESTAR DEB *

Track THOR ABLESTAR DEB * now!
10-day predictions


NORAD ID: 19961
Int'l Code: 1961-015MJ
Perigee: 859.6 km
Apogee: 1,093.9 km
Inclination: 65.6 °
Period: 104.5 minutes
Semi major axis: 7347 km
RCS: 0.0125 m2 (small)
Launch date: June 29, 1961
Source: United States (US)
Launch site: AIR FORCE EASTERN TEST RANGE (AFETR)

Note: This is SATELLITE DEBRIS
Your satellite tracking list
Your tracking list is empty




NASA's NSSDC Master Catalog

Two Line Element Set (TLE):
1 19961U 61015MJ  25135.37014734  .00000195  00000-0  25032-3 0  9994
2 19961  65.6401 123.4122 0159479 189.4515 320.3583 13.78392874885684
Source of the keplerian elements: AFSPC